Mobile, AL

2:38 PM CDT on October 18, 2017 (GMT -0500)
Mobile Regional

Weather History for KMOB - August, 2013

Change the Weather History Date:

Tuesday, August 27, 2013

  Actual Average Record
Temperature  
Mean Temperature 77 °F 81 °F  
Max Temperature 88 °F 90 °F 97 °F (2000)
Min Temperature 66 °F 72 °F 62 °F (1958)
Cooling Degree Days 12 16  
Month to date cooling degree days 435 455  
Year to date cooling degree days 1767 1866  
Since 1 June cooling degree days 1403 1421  
Growing Degree Days 27 (Base 50)    
Moisture  
Dew Point 63 °F    
Average Humidity 65    
Maximum Humidity 87    
Minimum Humidity 42    
Precipitation  
Precipitation 0.00 in 0.18 in 1.90 in (1984)
Month to date precipitation 9.88 6.24  
Year to date precipitation 51.63 46.44  
Sea Level Pressure  
Sea Level Pressure 30.09 in    
Wind  
Wind Speed 4 mph (NNE)    
Max Wind Speed 10 mph    
Max Gust Speed 14 mph    
Visibility 10 miles    
Events      
T = Trace of Precipitation, MM = Missing Value Source: NWS Daily Summary

Daily Weather History Graph

Daily Weather History Graph

Search for Another Location

Airport or City:

Trip Planner

Search our weather history database for the weather conditions in past years. The results will help you decide how hot, cold, wet, or windy it might be!

Date:

Astronomy

Aug. 27, 2013 Rise Set
Actual Time 6:26 AM CDT 7:21 PM CDT
Civil Twilight 6:01 AM CDT 7:46 PM CDT
Nautical Twilight 5:32 AM CDT 8:15 PM CDT
Astronomical Twilight 5:02 AM CDT 8:45 PM CDT
Moon 11:45 PM CDT (8/27) 12:54 PM CDT (8/27)
Length of Visible Light 13h 44m
Length of Day
12h 54m
Waning Gibbous, 57% of the Moon is Illuminated
Aug 27
Waning Gibbous
Aug 28
Last Quarter
Sep 5
New
Sep 12
First Quarter
Sep 19
Full

Hourly Weather History & Observations

Time (CDT) Temp. Heat Index Dew Point Humidity Pressure Visibility Wind Dir Wind Speed Gust Speed Precip Events Conditions
12:56 AM 71.1 °F - 64.0 °F 78% 30.13 in 10.0 mi NE 4.6 mph - N/A   Clear
1:56 AM 70.0 °F - 64.0 °F 81% 30.11 in 10.0 mi NE 3.5 mph - N/A   Clear
2:56 AM 69.1 °F - 63.0 °F 81% 30.10 in 10.0 mi NNE 3.5 mph - N/A   Clear
3:56 AM 68.0 °F - 63.0 °F 84% 30.09 in 10.0 mi NE 3.5 mph - N/A   Clear
4:56 AM 68.0 °F - 62.1 °F 81% 30.09 in 10.0 mi NNE 3.5 mph - N/A   Clear
5:56 AM 66.0 °F - 62.1 °F 87% 30.10 in 7.0 mi Calm Calm - N/A   Partly Cloudy
6:56 AM 66.9 °F - 62.1 °F 84% 30.12 in 10.0 mi NNE 5.8 mph - N/A   Scattered Clouds
7:56 AM 71.1 °F - 62.1 °F 73% 30.12 in 10.0 mi NE 4.6 mph - N/A   Scattered Clouds
8:56 AM 75.9 °F - 64.0 °F 67% 30.13 in 10.0 mi ENE 4.6 mph - N/A   Scattered Clouds
9:56 AM 80.1 °F 81.9 °F 64.9 °F 60% 30.13 in 10.0 mi Variable 5.8 mph - N/A   Scattered Clouds
10:56 AM 82.0 °F 82.7 °F 61.0 °F 49% 30.13 in 10.0 mi NNE 6.9 mph - N/A   Mostly Cloudy
11:56 AM 84.0 °F 84.4 °F 61.0 °F 46% 30.12 in 10.0 mi West 4.6 mph - N/A   Mostly Cloudy
12:56 PM 84.9 °F 85.4 °F 62.1 °F 46% 30.10 in 10.0 mi NNW 5.8 mph - N/A   Mostly Cloudy
1:56 PM 86.0 °F 86.1 °F 61.0 °F 43% 30.09 in 10.0 mi Variable 4.6 mph - N/A   Mostly Cloudy
2:56 PM 86.0 °F 85.7 °F 60.1 °F 41% 30.07 in 10.0 mi North 4.6 mph - N/A   Scattered Clouds
3:56 PM 86.0 °F 85.7 °F 60.1 °F 41% 30.06 in 10.0 mi NW 3.5 mph - N/A   Scattered Clouds
4:56 PM 84.9 °F 84.8 °F 60.1 °F 43% 30.05 in 10.0 mi North 5.8 mph - N/A   Scattered Clouds
5:56 PM 82.9 °F 84.0 °F 63.0 °F 51% 30.05 in 10.0 mi NNE 5.8 mph - N/A   Scattered Clouds
6:56 PM 82.0 °F 83.8 °F 64.9 °F 56% 30.05 in 10.0 mi NE 5.8 mph - N/A   Scattered Clouds
7:56 PM 78.1 °F - 66.0 °F 66% 30.05 in 10.0 mi NNE 4.6 mph - N/A   Scattered Clouds
8:56 PM 77.0 °F - 66.0 °F 69% 30.06 in 10.0 mi NNE 4.6 mph - 0.01 in   Scattered Clouds
9:56 PM 72.0 °F - 66.0 °F 81% 30.07 in 10.0 mi Calm Calm - N/A   Partly Cloudy
10:56 PM 71.1 °F - 64.9 °F 81% 30.07 in 10.0 mi Calm Calm - N/A   Partly Cloudy
11:56 PM 69.1 °F - 64.9 °F 87% 30.06 in 10.0 mi Calm Calm - N/A   Clear